Weather History for Moorhead, MN

Change the Weather History Date:

Monday, February 25, 2013

  Actual Average (KFAR) Record (KFAR)
Temperature  
Mean Temperature 18 °F 19 °F  
Max Temperature 23 °F 27 °F 66 °F (1958)
Min Temperature 12 °F 10 °F -30 °F (1950)
Degree Days  
Heating Degree Days 48 46  
Month to date heating degree days 1274  
Since 1 July heating degree days 6542  
Cooling Degree Days 0 0  
Month to date cooling degree days 0  
Year to date cooling degree days 0  
Moisture  
Dew Point 19 °F    
Average Humidity 100    
Maximum Humidity 100    
Minimum Humidity 92    
Precipitation  
Precipitation 0.00 in 0.03 in 0.57 in (1998)
Month to date precipitation 0.52  
Year to date precipitation 1.22  
Snow  
Snow 0.00 in 0.30 in 2.80 in (2007)
Month to date snowfall 6.1  
Since 1 July snowfall 37.1  
Snow Depth -    
Sea Level Pressure  
Sea Level Pressure 30.05 in    
Wind  
Wind Speed 4 mph (South)    
Max Wind Speed 13 mph    
Max Gust Speed -    
Visibility 3 miles    
Events Fog    
T = Trace of Precipitation, MM = Missing Value Source: NWS Daily Summary

Daily Weather History Graph

Daily Weather History Graph

Search for Another Location

Airport:

Trip Planner

Search our weather history database for the weather conditions in past years. The results will help you decide how hot, cold, wet, or windy it might be!

Date:

Astronomy

Feb. 25, 2013 Rise Set
Actual Time 7:13 AM CST 6:06 PM CST
Civil Twilight 6:42 AM CST 6:37 PM CST
Nautical Twilight 6:07 AM CST 7:12 PM CST
Astronomical Twilight 5:32 AM CST 7:47 PM CST
Moon 6:25 PM CST (2/25) 6:41 AM CST (2/25)
Length of Visible Light 11h 54m
Length of Day
10h 53m
Full, 100% of the Moon is Illuminated
Feb 25
Full
Feb 25
Full
Mar 4
Last Quarter
Mar 11
New
Mar 19
First Quarter

Hourly Weather History & Observations

Time (CST) Temp. Windchill Dew Point Humidity Pressure Visibility Wind Dir Wind Speed Gust Speed Precip Events Conditions
12:15 AM 17.6 °F 9.3 °F 17.6 °F 100% 30.06 in 3.0 mi South 5.8 mph - N/A   Overcast
12:34 AM 17.6 °F - 17.6 °F 100% 30.06 in 3.0 mi Calm Calm - N/A   Overcast
12:55 AM 17.6 °F 12.3 °F 17.6 °F 100% 30.06 in 2.5 mi South 3.5 mph - N/A   Overcast
1:15 AM 17.6 °F 12.3 °F 17.6 °F 100% 30.06 in 2.0 mi South 3.5 mph - N/A   Overcast
1:34 AM 17.6 °F 12.3 °F 17.6 °F 100% 30.06 in 1.5 mi South 3.5 mph - N/A   Overcast
1:55 AM 17.6 °F - 17.6 °F 100% 30.06 in 1.0 mi Calm Calm - N/A   Overcast
2:15 AM 17.6 °F - 17.6 °F 100% 30.07 in 0.8 mi Calm Calm - N/A   Overcast
2:34 AM 17.6 °F - 17.6 °F 100% 30.07 in 0.5 mi Calm Calm - N/A Fog Light Freezing Fog
2:55 AM 17.6 °F 12.3 °F 17.6 °F 100% 30.06 in 0.8 mi South 3.5 mph - N/A   Overcast
3:15 AM 19.4 °F - 19.4 °F 100% 30.06 in 0.8 mi Calm Calm - N/A   Overcast
3:34 AM 19.4 °F 14.3 °F 19.4 °F 100% 30.05 in 0.8 mi SSE 3.5 mph - N/A   Overcast
3:55 AM 19.4 °F - 19.4 °F 100% 30.05 in 0.8 mi Calm Calm - N/A   Overcast
4:15 AM 19.4 °F - 19.4 °F 100% 30.05 in 0.5 mi Calm Calm - N/A Fog Light Freezing Fog
4:35 AM 19.4 °F - 19.4 °F 100% 30.05 in 1.0 mi Calm Calm - N/A   Overcast
4:55 AM 19.4 °F - 19.4 °F 100% 30.05 in 1.8 mi Calm Calm - N/A   Overcast
5:14 AM 19.4 °F - 19.4 °F 100% 30.05 in 2.5 mi Calm Calm - N/A   Overcast
5:35 AM 19.4 °F - 19.4 °F 100% 30.05 in 1.2 mi Calm Calm - N/A   Overcast
5:55 AM 19.4 °F - 19.4 °F 100% 30.05 in 0.5 mi Calm Calm - N/A Fog Light Freezing Fog
6:14 AM 19.4 °F - 19.4 °F 100% 30.06 in 0.5 mi Calm Calm - N/A Fog Light Freezing Fog
6:35 AM 17.6 °F 12.3 °F 17.6 °F 100% 30.06 in 7.0 mi SW 3.5 mph - N/A   Overcast
6:55 AM 15.8 °F 10.2 °F 15.8 °F 100% 30.07 in 1.0 mi SW 3.5 mph - N/A   Overcast
7:14 AM 14.0 °F - 14.0 °F 100% 30.07 in 7.0 mi Calm Calm - N/A   Mostly Cloudy
7:35 AM 12.2 °F - 12.2 °F 100% 30.08 in 5.0 mi Calm Calm - N/A   Clear
7:54 AM 12.2 °F 6.1 °F 12.2 °F 100% 30.08 in 5.0 mi SSW 3.5 mph - N/A   Clear
8:15 AM 12.2 °F 4.3 °F 12.2 °F 100% 30.08 in 5.0 mi SSW 4.6 mph - N/A   Clear
8:35 AM 12.2 °F 4.3 °F 12.2 °F 100% 30.08 in 5.0 mi SSW 4.6 mph - N/A   Clear
8:54 AM 12.2 °F 4.3 °F 10.4 °F 92% 30.08 in 4.0 mi SSW 4.6 mph - N/A   Clear
9:15 AM 12.2 °F 2.9 °F 12.2 °F 100% 30.08 in 4.0 mi SSW 5.8 mph - N/A   Clear
9:35 AM 14.0 °F 5.1 °F 14.0 °F 100% 30.08 in 5.0 mi SSW 5.8 mph - N/A   Clear
9:54 AM 14.0 °F 8.2 °F 14.0 °F 100% 30.08 in 7.0 mi SSW 3.5 mph - N/A   Mostly Cloudy
10:15 AM 15.8 °F 7.2 °F 15.8 °F 100% 30.09 in 0.2 mi SSW 5.8 mph - N/A Fog Light Freezing Fog
10:35 AM 17.6 °F 7.3 °F 17.6 °F 100% 30.08 in 0.2 mi SSW 8.1 mph - N/A Fog Light Freezing Fog
10:54 AM 17.6 °F 8.2 °F 17.6 °F 100% 30.08 in 0.2 mi SSW 6.9 mph - N/A Fog Light Freezing Fog
11:15 AM 19.4 °F 11.5 °F 19.4 °F 100% 30.08 in 0.5 mi South 5.8 mph - N/A Fog Light Freezing Fog
11:35 AM 19.4 °F 10.4 °F 19.4 °F 100% 30.07 in 3.0 mi SSW 6.9 mph - N/A   Mostly Cloudy
11:54 AM 19.4 °F 10.4 °F 19.4 °F 100% 30.07 in 7.0 mi South 6.9 mph - N/A   Scattered Clouds
12:15 PM 21.2 °F 11.7 °F 21.2 °F 100% 30.07 in 7.0 mi South 8.1 mph - N/A   Scattered Clouds
12:35 PM 21.2 °F 10.9 °F 21.2 °F 100% 30.06 in 4.0 mi South 9.2 mph - N/A   Mostly Cloudy
12:54 PM 21.2 °F 11.7 °F 21.2 °F 100% 30.06 in 5.0 mi South 8.1 mph - N/A   Overcast
1:15 PM 21.2 °F 11.7 °F 21.2 °F 100% 30.05 in 5.0 mi South 8.1 mph - N/A   Overcast
1:35 PM 21.2 °F 10.1 °F 21.2 °F 100% 30.05 in 5.0 mi South 10.4 mph - N/A   Overcast
1:54 PM 23.0 °F 13.1 °F 23.0 °F 100% 30.05 in 5.0 mi South 9.2 mph - N/A   Overcast
2:15 PM 23.0 °F 13.9 °F 23.0 °F 100% 30.04 in 10.0 mi South 8.1 mph - N/A   Scattered Clouds
2:34 PM 23.0 °F 12.4 °F 23.0 °F 100% 30.03 in 7.0 mi South 10.4 mph - N/A   Scattered Clouds
2:55 PM 23.0 °F 12.4 °F 23.0 °F 100% 30.03 in 7.0 mi South 10.4 mph - N/A   Scattered Clouds
3:15 PM 23.0 °F 11.1 °F 23.0 °F 100% 30.03 in 7.0 mi South 12.7 mph - N/A   Scattered Clouds
3:34 PM 23.0 °F 11.7 °F 23.0 °F 100% 30.03 in 7.0 mi South 11.5 mph - N/A   Clear
3:55 PM 23.0 °F 12.4 °F 23.0 °F 100% 30.03 in 5.0 mi South 10.4 mph - N/A   Clear
4:15 PM 23.0 °F 12.4 °F 23.0 °F 100% 30.03 in 7.0 mi South 10.4 mph - N/A   Clear
4:35 PM 23.0 °F 12.4 °F 23.0 °F 100% 30.03 in 7.0 mi South 10.4 mph - N/A   Clear
4:55 PM 23.0 °F 12.4 °F 23.0 °F 100% 30.04 in 7.0 mi South 10.4 mph - N/A   Clear
8:11 PM 21.2 °F 11.7 °F 21.2 °F 100% 30.04 in 1.2 mi South 8.1 mph - N/A   Overcast
8:15 PM 23.0 °F 13.1 °F 23.0 °F 100% 30.05 in 1.5 mi South 9.2 mph - N/A   Overcast
8:34 PM 21.2 °F 11.7 °F 21.2 °F 100% 30.04 in 2.5 mi South 8.1 mph - N/A   Overcast
8:55 PM 21.2 °F 12.6 °F 21.2 °F 100% 30.03 in 3.0 mi South 6.9 mph - N/A   Overcast
9:15 PM 21.2 °F 11.7 °F 21.2 °F 100% 30.03 in 2.0 mi South 8.1 mph - N/A   Overcast
9:34 PM 21.2 °F 12.6 °F 21.2 °F 100% 30.03 in 1.5 mi South 6.9 mph - N/A   Overcast
9:55 PM 21.2 °F 12.6 °F 21.2 °F 100% 30.03 in 1.0 mi South 6.9 mph - N/A   Overcast
10:15 PM 21.2 °F 16.4 °F 21.2 °F 100% 30.03 in 1.2 mi South 3.5 mph - N/A   Overcast
10:34 PM 21.2 °F 11.7 °F 21.2 °F 100% 30.02 in 0.8 mi South 8.1 mph - N/A   Overcast
10:55 PM 21.2 °F 14.9 °F 21.2 °F 100% 30.02 in 0.8 mi South 4.6 mph - N/A   Overcast
11:15 PM 21.2 °F 16.4 °F 21.2 °F 100% 30.02 in 0.8 mi South 3.5 mph - N/A   Overcast
11:34 PM 21.2 °F 14.9 °F 21.2 °F 100% 30.01 in 0.5 mi South 4.6 mph - N/A Fog Light Freezing Fog
11:55 PM 21.2 °F 12.6 °F 21.2 °F 100% 30.01 in 0.5 mi South 6.9 mph - N/A Fog Light Freezing Fog